Wind_Speed
10 11 11 12 13 13 14 15 16 15 16 16 15 15 16 16 16 17 17 17 18 19 18 17 17 17 17 14 14 14 15 15 15 15 15 15 15 15 16 17 18 18 19 19
11 11 12 13 14 15 15 16 16 15 16 16 16 15 16 16 15 16 16 16 17 17 18 18 18 17 16 15 13 13 13 13 13 13 14 15 15 15 15 16 17 17 18 19
11 11 12 13 14 15 15 16 15 15 15 16 16 15 15 15 15 16 16 16 15 16 17 17 18 17 17 16 15 14 13 13 13 14 15 16 17 16 16 17 17 18 18 18
12 12 13 14 14 15 14 15 15 15 15 16 16 15 13 14 15 16 15 15 15 15 13 14 14 16 16 16 16 15 14 13 14 14 15 16 17 17 17 17 16 17 17 17
13 13 14 14 14 15 15 16 16 15 15 15 15 15 13 13 14 14 15 14 13 12 12 13 14 14 15 15 14 14 14 14 14 15 16 17 18 17 17 16 16 17 17 17
13 14 14 14 14 15 17 16 16 15 14 14 14 15 13 13 14 14 14 14 13 13 12 13 13 12 13 13 13 14 14 13 13 14 15 16 17 16 16 16 16 16 17 18
14 14 15 15 15 15 16 17 17 16 15 14 13 14 13 13 13 13 13 13 13 13 13 13 12 11 10 11 12 13 13 13 13 14 14 15 16 16 16 16 16 17 17 17
14 14 15 16 16 16 15 16 17 17 16 14 13 15 14 13 13 14 13 13 12 11 11 11 11 11 10 10 11 12 12 12 13 13 13 13 14 15 15 16 16 17 17 17
15 14 14 15 16 16 16 16 16 17 16 15 14 14 14 14 14 14 13 13 12 11 10 9 9 9 9 10 11 11 11 11 12 12 12 13 13 14 15 16 17 17 16 16
16 16 15 16 17 17 17 17 17 16 15 15 14 15 14 14 14 14 13 13 12 11 10 8 8 9 9 10 11 11 11 12 12 13 13 13 14 15 15 16 16 16 16 15
17 17 16 16 17 17 17 18 17 17 16 16 16 15 14 14 14 14 13 13 12 11 9 8 9 9 10 11 11 11 11 11 12 13 13 14 14 15 16 15 15 14 14 13
17 18 17 16 16 16 17 17 17 17 17 17 17 15 15 15 14 13 13 13 12 11 10 10 10 11 11 11 11 11 11 11 12 12 11 12 13 14 15 15 15 14 14 14
17 17 17 16 15 16 17 17 17 18 18 17 17 16 15 15 14 14 14 14 12 11 11 10 11 11 11 11 11 11 12 12 11 10 10 11 11 12 13 15 15 14 14 15
18 17 17 17 17 17 17 16 17 18 18 18 17 16 15 15 15 14 14 14 13 11 12 11 11 11 12 12 12 12 12 12 12 11 11 11 11 12 14 14 14 14 14 15
18 18 18 18 19 19 19 18 18 18 18 19 17 18 16 16 16 15 15 14 14 13 13 13 12 12 12 13 13 13 13 13 13 12 12 13 13 14 14 14 14 15 15 15
19 19 19 19 20 20 20 19 19 19 19 20 20 19 19 18 17 17 16 15 15 15 14 14 14 14 13 13 13 14 14 14 13 13 13 14 15 16 15 15 15 15 16 17
21 22 22 21 21 22 21 20 20 21 21 21 21 21 20 19 18 18 18 17 16 16 15 15 15 15 14 14 14 15 14 14 14 15 15 16 15 15 15 15 16 16 16 17
22 23 23 22 22 22 21 20 21 21 21 21 22 22 21 20 19 19 18 17 17 16 16 16 16 15 15 15 15 15 14 14 15 15 16 15 14 15 16 16 16 16 16 16
22 23 23 23 23 22 20 20 21 21 20 21 21 21 21 21 20 19 19 18 18 17 16 16 16 16 16 16 15 15 15 15 15 16 16 16 16 16 16 16 16 17 17 17
23 24 24 24 24 23 21 21 21 22 22 21 20 21 21 20 21 20 19 19 17 16 16 16 17 17 17 16 16 16 16 16 16 16 16 15 15 15 16 17 17 17 16 16
23 23 24 24 25 23 22 22 22 22 22 21 21 21 21 21 21 20 19 19 18 17 16 17 17 17 17 17 16 16 16 17 16 15 15 15 15 16 16 17 17 17 17 16
23 23 24 24 24 23 23 23 23 23 22 21 21 20 20 20 20 21 20 20 19 19 18 17 17 17 17 18 17 16 16 16 15 15 16 16 16 16 16 16 17 16 16 15
23 24 24 25 25 25 24 24 24 23 23 23 22 21 20 20 21 20 20 19 19 19 20 19 18 18 18 18 18 18 17 16 16 16 16 17 17 16 16 17 16 16 16 16
24 24 24 24 24 25 25 25 24 24 24 24 24 22 22 22 21 21 20 20 20 20 21 21 21 20 19 19 18 18 18 18 17 17 16 17 16 17 17 16 16 16 16 16
24 23 23 23 23 24 24 24 24 24 24 24 24 23 23 23 22 22 21 21 21 21 21 21 21 21 20 19 19 19 19 18 17 17 17 17 17 17 17 17 17 17 16 17
23 23 23 23 23 22 22 22 23 23 23 23 23 23 23 23 23 22 22 21 21 19 20 20 21 21 20 20 19 18 17 18 17 17 17 17 17 17 17 16 16 17 17 17
Wind_Direction
258 259 264 268 270 270 273 276 280 284 283 285 288 289 285 286 287 289 287 282 278 275 275 273 271 270 270 268 271 272 269 265 266 267 265 261 264 265 263 263 266 268 272 274
257 260 262 265 270 273 277 281 284 287 289 289 290 292 290 288 290 291 290 283 276 275 273 270 271 269 264 266 268 271 267 267 267 267 262 260 264 268 269 267 271 271 272 272
264 264 264 266 273 279 278 283 288 290 292 294 294 294 291 289 293 296 291 285 279 273 271 270 268 268 269 268 271 270 267 267 264 263 262 262 266 269 270 269 271 272 272 272
266 267 268 270 272 277 278 281 285 289 292 296 300 299 295 292 292 292 290 286 283 278 271 269 269 269 271 270 270 269 269 271 266 261 262 268 268 268 270 269 271 274 276 277
269 270 271 274 275 274 279 281 283 286 290 295 299 300 301 297 293 292 290 292 288 285 278 274 271 270 271 268 269 268 269 269 265 264 263 267 267 267 268 270 273 274 275 278
270 271 274 277 276 277 280 280 280 283 288 294 298 299 301 301 299 296 293 293 289 286 282 278 276 270 270 268 268 269 271 268 265 262 263 266 270 270 265 268 270 273 276 277
270 272 274 279 280 279 280 280 279 282 288 293 297 298 302 306 304 300 294 293 294 289 281 277 275 273 267 266 267 270 273 272 266 263 265 267 270 269 268 269 273 277 277 275
275 272 274 280 282 281 281 282 281 285 290 294 295 300 301 304 303 301 300 298 296 291 285 278 276 273 263 263 266 270 275 274 272 271 271 272 270 270 272 277 276 277 277 276
281 278 278 279 281 280 280 280 282 284 288 290 294 300 301 302 305 305 304 299 294 294 295 291 285 276 268 266 268 271 276 277 274 274 276 273 271 273 276 278 279 278 279 280
280 280 278 278 278 279 279 282 281 281 288 292 293 298 302 300 304 306 305 299 298 298 296 294 287 278 274 270 270 274 277 279 279 277 274 273 275 274 278 281 279 280 280 281
277 279 280 277 276 278 278 279 278 278 282 289 293 299 301 301 304 305 305 300 297 294 292 287 287 281 277 272 272 277 281 281 280 279 276 275 277 277 280 284 284 284 281 276
276 278 278 277 276 276 277 278 277 275 279 284 290 294 298 299 302 302 301 300 296 290 286 286 285 285 280 275 273 276 283 282 284 284 281 278 276 276 279 282 282 282 278 275
277 276 277 275 274 273 274 275 275 275 276 280 285 289 292 296 298 299 297 297 296 294 286 280 279 286 287 280 276 276 279 283 287 287 286 282 279 280 282 282 283 281 280 278
273 273 274 275 277 276 274 272 274 274 274 278 283 287 289 291 293 296 296 296 291 293 294 290 288 288 286 285 281 278 281 285 290 287 284 282 284 284 284 283 283 283 280 279
269 269 271 273 276 275 275 273 273 274 276 277 280 282 286 285 288 291 293 292 287 288 292 293 293 291 289 286 287 283 284 287 290 291 288 283 286 288 287 286 286 287 286 284
268 269 271 273 274 274 274 272 273 274 274 277 278 280 281 280 282 286 287 287 286 284 287 289 290 290 289 286 286 285 285 286 285 286 289 290 291 290 291 292 290 290 288 285
270 272 274 275 275 274 273 274 273 273 273 275 277 279 279 278 279 281 283 283 283 284 284 286 285 286 286 285 287 288 290 289 283 283 287 290 293 296 294 293 292 291 290 289
272 273 275 278 279 278 278 277 276 275 276 275 276 277 277 276 276 277 280 280 279 281 283 282 284 287 289 289 287 290 291 291 289 286 286 286 291 293 295 296 296 295 293 292
272 274 275 279 281 279 279 278 278 277 275 273 272 273 273 273 273 275 277 277 276 277 278 280 283 286 289 288 287 291 293 293 289 285 284 287 288 289 290 291 294 294 293 291
271 273 274 276 279 280 278 275 275 275 273 272 270 272 272 271 271 273 273 275 276 276 275 276 277 282 287 288 288 290 293 292 290 287 285 284 287 290 291 292 293 293 292 294
269 270 271 274 276 278 278 276 274 273 275 273 271 272 272 272 271 270 271 272 274 276 277 277 276 281 285 290 288 289 290 289 288 287 287 286 290 293 294 294 294 294 295 296
270 271 271 272 274 277 278 275 273 275 275 273 273 273 273 272 270 269 270 270 271 272 275 277 278 280 283 288 288 287 288 287 286 285 285 285 286 289 292 294 295 294 294 295
270 272 272 272 274 275 275 274 272 272 273 274 273 271 272 271 269 269 268 269 271 270 272 273 276 278 280 283 285 287 287 287 285 284 284 282 283 285 290 292 292 292 292 293
270 272 271 272 273 274 274 273 271 271 272 272 271 271 271 270 269 267 266 269 270 270 272 272 274 276 278 279 280 283 284 284 284 283 279 276 278 283 285 287 289 290 290 290
268 271 272 271 271 273 273 271 270 270 270 271 269 271 271 269 268 265 264 267 270 269 270 271 272 271 274 276 274 276 279 280 280 280 278 277 279 282 284 286 289 290 289 290
266 268 269 270 272 273 271 268 269 269 269 269 270 270 269 269 267 266 267 268 268 268 268 269 269 268 270 274 277 277 278 279 280 280 280 280 281 283 284 286 289 289 290 291
Height
5831 5832 5832 5832 5831 5831 5830 5830 5829 5828 5826 5825 5825 5823 5822 5821 5819 5818 5817 5817 5817 5817 5817 5816 5816 5816 5816 5816 5816 5817 5817 5817 5818 5819 5819 5820 5821 5821 5821 5821 5822 5822 5822 5822
5830 5830 5830 5829 5828 5828 5828 5827 5826 5825 5824 5822 5821 5820 5819 5817 5816 5815 5814 5814 5813 5813 5812 5812 5812 5812 5813 5813 5813 5813 5813 5813 5814 5815 5816 5816 5817 5817 5817 5817 5817 5818 5818 5817
5827 5828 5827 5826 5826 5826 5825 5824 5823 5822 5820 5819 5818 5817 5816 5814 5813 5812 5811 5809 5809 5809 5808 5808 5808 5808 5808 5808 5808 5809 5809 5809 5810 5811 5812 5812 5812 5813 5813 5813 5813 5813 5813 5813
5824 5824 5824 5823 5823 5823 5822 5821 5820 5818 5818 5816 5815 5814 5813 5811 5810 5808 5807 5806 5805 5804 5803 5804 5804 5804 5804 5804 5805 5806 5806 5806 5806 5807 5808 5808 5809 5809 5809 5808 5808 5808 5808 5808
5821 5821 5821 5820 5820 5820 5819 5818 5817 5816 5814 5814 5812 5811 5812 5809 5807 5806 5805 5803 5802 5801 5801 5801 5800 5800 5800 5801 5801 5802 5802 5802 5803 5803 5804 5804 5805 5805 5804 5804 5804 5804 5803 5803
5818 5818 5818 5817 5817 5816 5815 5815 5814 5813 5812 5811 5810 5809 5809 5807 5805 5804 5803 5801 5800 5799 5798 5798 5797 5797 5797 5797 5798 5798 5799 5799 5799 5799 5800 5800 5800 5800 5800 5800 5800 5799 5799 5798
5815 5815 5814 5814 5813 5813 5812 5812 5811 5810 5809 5809 5808 5806 5807 5805 5803 5802 5801 5799 5798 5796 5795 5795 5794 5794 5794 5794 5795 5795 5796 5796 5795 5795 5795 5795 5795 5795 5795 5795 5795 5795 5794 5794
5811 5812 5812 5811 5810 5809 5809 5809 5808 5807 5806 5806 5805 5803 5805 5802 5800 5799 5798 5797 5796 5794 5793 5792 5792 5792 5792 5792 5792 5792 5792 5792 5792 5792 5791 5791 5791 5791 5791 5791 5791 5790 5790 5789
5807 5808 5808 5807 5806 5806 5805 5805 5805 5804 5803 5803 5802 5801 5801 5799 5798 5797 5796 5794 5793 5792 5791 5790 5789 5789 5789 5790 5789 5789 5789 5788 5788 5788 5787 5787 5787 5787 5787 5787 5786 5786 5785 5785
5804 5804 5804 5804 5803 5802 5802 5802 5801 5800 5799 5799 5799 5798 5798 5796 5795 5794 5793 5792 5790 5789 5788 5788 5787 5787 5787 5787 5787 5786 5786 5785 5785 5784 5784 5784 5783 5783 5783 5782 5782 5781 5781 5781
5800 5800 5800 5799 5798 5798 5798 5798 5797 5797 5797 5796 5795 5798 5795 5794 5793 5792 5791 5789 5788 5787 5786 5786 5785 5785 5785 5785 5784 5783 5783 5782 5781 5781 5780 5780 5780 5779 5779 5778 5778 5777 5777 5777
5796 5795 5795 5795 5794 5794 5794 5794 5793 5794 5793 5793 5792 5796 5793 5791 5790 5789 5788 5787 5786 5785 5784 5783 5783 5782 5782 5782 5781 5781 5780 5779 5779 5778 5777 5776 5776 5775 5775 5774 5774 5773 5773 5773
5791 5791 5790 5790 5792 5791 5789 5789 5789 5789 5789 5789 5788 5792 5789 5788 5787 5786 5785 5784 5783 5782 5781 5781 5780 5779 5779 5779 5778 5778 5777 5776 5775 5774 5773 5773 5772 5771 5771 5770 5770 5769 5769 5768
5787 5786 5787 5787 5786 5785 5785 5785 5785 5785 5785 5785 5785 5786 5786 5785 5784 5783 5782 5781 5780 5779 5779 5778 5777 5777 5776 5775 5775 5774 5774 5773 5772 5771 5771 5770 5769 5768 5767 5766 5766 5765 5764 5763
5782 5781 5781 5781 5781 5780 5780 5780 5780 5780 5780 5780 5781 5781 5782 5781 5780 5780 5779 5778 5778 5777 5776 5775 5774 5773 5773 5772 5771 5771 5770 5770 5769 5768 5767 5766 5766 5765 5764 5762 5761 5760 5760 5759
5776 5776 5776 5776 5776 5775 5775 5776 5775 5775 5775 5775 5776 5777 5776 5776 5776 5776 5775 5775 5774 5773 5772 5772 5771 5770 5770 5769 5768 5767 5767 5766 5765 5764 5764 5763 5762 5761 5760 5758 5757 5756 5755 5754
5771 5771 5771 5771 5770 5769 5770 5771 5770 5770 5770 5771 5770 5772 5771 5771 5772 5771 5771 5770 5770 5769 5769 5768 5768 5767 5766 5765 5764 5763 5763 5762 5761 5761 5760 5759 5758 5757 5756 5754 5753 5752 5750 5749
5765 5765 5764 5764 5765 5764 5767 5765 5765 5764 5765 5765 5765 5765 5765 5766 5766 5766 5766 5766 5765 5765 5765 5764 5763 5763 5762 5761 5760 5759 5758 5758 5757 5756 5755 5755 5754 5753 5752 5750 5749 5747 5746 5745
5760 5759 5759 5758 5758 5758 5760 5760 5759 5758 5759 5759 5759 5759 5759 5759 5760 5760 5760 5760 5760 5760 5759 5759 5759 5758 5757 5756 5755 5754 5753 5753 5752 5751 5751 5750 5749 5749 5747 5746 5745 5743 5742 5740
5754 5753 5754 5753 5752 5752 5755 5754 5753 5753 5753 5754 5753 5753 5753 5753 5754 5755 5755 5755 5754 5754 5754 5754 5754 5753 5753 5752 5751 5750 5749 5748 5747 5746 5746 5745 5744 5744 5742 5741 5739 5738 5736 5735
5748 5747 5747 5747 5746 5746 5747 5747 5747 5748 5748 5748 5747 5747 5747 5747 5748 5749 5748 5749 5749 5749 5749 5749 5748 5748 5747 5746 5746 5745 5744 5743 5743 5742 5741 5740 5739 5738 5737 5736 5735 5733 5732 5730
5741 5741 5741 5741 5740 5743 5741 5740 5741 5741 5740 5740 5740 5741 5741 5741 5741 5741 5742 5742 5743 5743 5743 5743 5742 5742 5742 5741 5740 5740 5739 5738 5738 5737 5736 5735 5735 5734 5732 5731 5730 5728 5727 5726
5733 5734 5734 5735 5736 5735 5733 5733 5733 5733 5733 5734 5734 5734 5734 5734 5735 5735 5736 5736 5736 5737 5737 5737 5737 5737 5736 5736 5735 5735 5734 5733 5732 5732 5731 5730 5729 5729 5727 5726 5725 5724 5722 5721
5726 5726 5727 5727 5727 5727 5727 5726 5726 5726 5726 5727 5727 5728 5728 5728 5728 5729 5729 5730 5730 5730 5730 5730 5731 5731 5730 5730 5729 5729 5728 5727 5726 5726 5725 5725 5724 5724 5722 5721 5720 5719 5717 5716
5720 5720 5720 5720 5720 5720 5720 5720 5720 5720 5720 5720 5721 5721 5721 5721 5722 5722 5723 5724 5724 5724 5724 5724 5724 5724 5724 5724 5723 5722 5722 5721 5721 5720 5720 5719 5718 5718 5717 5716 5715 5714 5713 5711
5712 5713 5713 5713 5713 5713 5714 5713 5713 5713 5713 5714 5714 5714 5714 5714 5715 5716 5716 5717 5717 5717 5717 5717 5718 5718 5717 5717 5717 5716 5716 5715 5715 5715 5714 5713 5713 5712 5711 5710 5709 5708 5707 5706